Weather History for KRBD - October, 2012

Change the Weather History Date:

Wednesday, October 24, 2012

  Actual Average Record
Temperature  
Mean Temperature 76 °F -  
Max Temperature 84 °F 73 °F 90 °F (2003)
Min Temperature 68 °F 54 °F 37 °F (2005)
Cooling Degree Days 11    
Growing Degree Days 26 (Base 50)    
Moisture  
Dew Point 63 °F    
Average Humidity 68    
Maximum Humidity 90    
Minimum Humidity 46    
Precipitation  
Precipitation 0.00 in - - ()
Sea Level Pressure  
Sea Level Pressure 29.90 in    
Wind  
Wind Speed 9 mph (South)    
Max Wind Speed 17 mph    
Max Gust Speed 25 mph    
Visibility 10 miles    
Events      
Averages and records for this station are not official NWS values.
T = Trace of Precipitation, MM = Missing Value Source: NWS Daily Summary

Daily Weather History Graph

Daily Weather History Graph

Search for Another Location

Airport or City:

Trip Planner

Search our weather history database for the weather conditions in past years. The results will help you decide how hot, cold, wet, or windy it might be!

Date:

Astronomy

Oct. 24, 2012 Rise Set
Actual Time 7:38 AM CDT 6:43 PM CDT
Civil Twilight 7:13 AM CDT 7:08 PM CDT
Nautical Twilight 6:44 AM CDT 7:37 PM CDT
Astronomical Twilight 6:16 AM CDT 8:06 PM CDT
Moon 3:46 PM CDT (10/24) 2:50 AM CDT (10/24)
Length of Visible Light 11h 55m
Length of Day
11h 05m
Waxing Gibbous, 76% of the Moon is Illuminated
Oct 24
Waxing Gibbous
Oct 29
Full
Nov 6
Last Quarter
Nov 13
New
Nov 20
First Quarter

Hourly Weather History & Observations

Time (CDT) Temp. Heat Index Dew Point Humidity Pressure Visibility Wind Dir Wind Speed Gust Speed Precip Events Conditions
12:53 AM 72.0 °F - 63.0 °F 73% 29.91 in 10.0 mi SSE 4.6 mph - N/A   Clear
1:53 AM 72.0 °F - 62.1 °F 71% 29.91 in 10.0 mi South 6.9 mph - N/A   Clear
2:53 AM 71.1 °F - 62.1 °F 73% 29.90 in 10.0 mi South 9.2 mph 18.4 mph N/A   Clear
3:53 AM 70.0 °F - 63.0 °F 78% 29.89 in 10.0 mi South 8.1 mph - N/A   Clear
4:53 AM 69.1 °F - 63.0 °F 81% 29.89 in 10.0 mi South 8.1 mph - N/A   Clear
5:53 AM 69.1 °F - 64.0 °F 84% 29.91 in 10.0 mi South 8.1 mph - N/A   Clear
6:53 AM 69.1 °F - 64.9 °F 87% 29.92 in 10.0 mi South 5.8 mph 17.3 mph N/A   Clear
7:28 AM 68.0 °F - 64.4 °F 88% 29.95 in 10.0 mi South 8.1 mph - N/A   Partly Cloudy
7:53 AM 68.0 °F - 64.9 °F 90% 29.94 in 10.0 mi SSE 8.1 mph - N/A   Mostly Cloudy
8:53 AM 69.1 °F - 64.9 °F 87% 29.96 in 10.0 mi South 10.4 mph 17.3 mph N/A   Overcast
9:53 AM 71.1 °F - 66.0 °F 84% 29.97 in 10.0 mi South 11.5 mph 20.7 mph N/A   Overcast
10:44 AM 73.4 °F - 66.2 °F 78% 30.00 in 9.0 mi South 12.7 mph 20.7 mph N/A   Overcast
10:53 AM 73.0 °F - 66.0 °F 79% 29.98 in 9.0 mi South 9.2 mph 19.6 mph N/A   Overcast
11:53 AM 79.0 °F - 64.9 °F 62% 29.95 in 10.0 mi South 11.5 mph 20.7 mph N/A   Mostly Cloudy
12:40 PM 80.6 °F 82.3 °F 64.4 °F 58% 29.96 in 10.0 mi South 10.4 mph 25.3 mph N/A   Scattered Clouds
12:53 PM 81.0 °F 82.5 °F 64.0 °F 56% 29.93 in 10.0 mi South 12.7 mph 21.9 mph N/A   Scattered Clouds
1:53 PM 82.9 °F 83.7 °F 62.1 °F 49% 29.89 in 10.0 mi South 13.8 mph 20.7 mph N/A   Clear
2:53 PM 84.0 °F 84.4 °F 61.0 °F 46% 29.86 in 10.0 mi South 13.8 mph 20.7 mph N/A   Clear
3:53 PM 84.0 °F 84.5 °F 62.1 °F 47% 29.84 in 10.0 mi South 10.4 mph 20.7 mph N/A   Clear
4:53 PM 82.0 °F 83.1 °F 63.0 °F 52% 29.82 in 10.0 mi SSE 17.3 mph 24.2 mph N/A   Clear
5:53 PM 82.9 °F 84.0 °F 63.0 °F 51% 29.82 in 10.0 mi South 15.0 mph 24.2 mph N/A   Clear
6:53 PM 80.1 °F 81.2 °F 62.1 °F 54% 29.83 in 10.0 mi SSE 8.1 mph 18.4 mph N/A   Clear
7:53 PM 78.1 °F - 63.0 °F 60% 29.83 in 10.0 mi SSE 10.4 mph 18.4 mph N/A   Clear
8:53 PM 77.0 °F - 62.1 °F 60% 29.83 in 10.0 mi SSE 10.4 mph - N/A   Clear
9:53 PM 75.0 °F - 62.1 °F 64% 29.84 in 10.0 mi SSE 10.4 mph - N/A   Clear
10:53 PM 73.0 °F - 62.1 °F 68% 29.83 in 10.0 mi SSE 8.1 mph - N/A   Clear
11:53 PM 73.9 °F - 62.1 °F 66% 29.81 in 10.0 mi SSE 11.5 mph 18.4 mph N/A   Clear